TimeEET,TemperatureF,Dew PointF,Humidity,Sea Level PressureIn,VisibilityMPH,Wind Direction,Wind SpeedMPH,Gust SpeedMPH,PrecipitationIn,Events,Conditions,WindDirDegrees,DateUTC
12:20 AM,46.4,44.6,93,29.65,3.7,East,5.8,-,N/A,,Scattered Clouds,100,2012-12-02 22:20:00
12:50 AM,46.4,44.6,93,29.65,5.0,East,8.1,-,N/A,,Partly Cloudy,100,2012-12-02 22:50:00
1:20 AM,46.4,44.6,93,29.65,6.2,ESE,8.1,-,N/A,,Partly Cloudy,120,2012-12-02 23:20:00
1:50 AM,46.4,42.8,87,29.62,6.2,ESE,6.9,-,N/A,,Partly Cloudy,110,2012-12-02 23:50:00
2:00 AM,46,44,89,29.65,6,ESE,6.9,,,,Partly Cloudy,110,2012-12-03 00:00:00
2:20 AM,46.4,42.8,87,29.62,6.2,ESE,6.9,-,N/A,,Partly Cloudy,110,2012-12-03 00:20:00
2:50 AM,44.6,42.8,93,29.65,6.2,SE,4.6,-,N/A,,Partly Cloudy,130,2012-12-03 00:50:00
3:20 AM,44.6,42.8,93,29.65,6.2,SE,4.6,-,N/A,,Partly Cloudy,130,2012-12-03 01:20:00
3:50 AM,44.6,42.8,93,29.65,6.2,SE,4.6,-,N/A,,Partly Cloudy,130,2012-12-03 01:50:00
4:20 AM,44.6,42.8,93,29.65,6.2,SE,4.6,-,N/A,,Partly Cloudy,130,2012-12-03 02:20:00
4:50 AM,44.6,41.0,87,29.62,6.2,ESE,5.8,-,N/A,,Partly Cloudy,120,2012-12-03 02:50:00
5:50 AM,42.8,39.2,87,29.65,6.2,SE,5.8,-,N/A,,Partly Cloudy,130,2012-12-03 03:50:00
6:20 AM,42.8,39.2,87,29.65,6.2,SE,5.8,-,N/A,,Partly Cloudy,130,2012-12-03 04:20:00
6:50 AM,42.8,39.2,87,29.65,6.2,Variable,2.3,-,N/A,,Partly Cloudy,0,2012-12-03 04:50:00
7:20 AM,44.6,39.2,81,29.65,6.2,ESE,6.9,-,N/A,,Partly Cloudy,120,2012-12-03 05:20:00
7:50 AM,42.8,39.2,87,29.65,6.2,East,4.6,-,N/A,,Partly Cloudy,90,2012-12-03 05:50:00
8:00 AM,42,39,84,29.66,6,East,4.6,,,,Scattered Clouds,90,2012-12-03 06:00:00
8:20 AM,44.6,41.0,87,29.65,6.2,ESE,5.8,-,N/A,,Partly Cloudy,120,2012-12-03 06:20:00
8:50 AM,46.4,41.0,81,29.65,6.2,East,8.1,-,N/A,,Partly Cloudy,100,2012-12-03 06:50:00
9:20 AM,48.2,42.8,82,29.65,6.2,ESE,6.9,-,N/A,,Partly Cloudy,110,2012-12-03 07:20:00
9:50 AM,51.8,44.6,76,29.65,6.2,Variable,3.5,-,N/A,,Partly Cloudy,0,2012-12-03 07:50:00
10:20 AM,53.6,44.6,72,29.65,6.2,Variable,3.5,-,N/A,,Partly Cloudy,0,2012-12-03 08:20:00
10:50 AM,57.2,44.6,63,29.62,6.2,Variable,3.5,-,N/A,,Partly Cloudy,0,2012-12-03 08:50:00
11:20 AM,60.8,48.2,63,29.62,6.2,Variable,3.5,-,N/A,,Partly Cloudy,0,2012-12-03 09:20:00
11:50 AM,62.6,44.6,52,29.59,6.2,East,5.8,-,N/A,,Scattered Clouds,100,2012-12-03 09:50:00
12:20 PM,60.8,44.6,55,29.59,6.2,SSE,9.2,-,N/A,,Scattered Clouds,150,2012-12-03 10:20:00
12:50 PM,60.8,42.8,52,29.56,6.2,SSE,9.2,-,N/A,,Scattered Clouds,150,2012-12-03 10:50:00
1:20 PM,62.6,42.8,48,29.56,6.2,SSE,10.4,-,N/A,,Scattered Clouds,150,2012-12-03 11:20:00
1:50 PM,60.8,42.8,52,29.53,6.2,SSE,12.7,-,N/A,,Mostly Cloudy,150,2012-12-03 11:50:00
2:00 PM,61,43,41,29.55,6,SSE,12.7,,,,Mostly Cloudy,150,2012-12-03 12:00:00
2:20 PM,60.8,42.8,52,29.50,6.2,SE,11.5,-,N/A,,Scattered Clouds,130,2012-12-03 12:20:00
2:50 PM,62.6,44.6,52,29.47,6.2,South,11.5,23.0,N/A,,Scattered Clouds,180,2012-12-03 12:50:00
3:20 PM,59.0,44.6,59,29.50,6.2,SSW,13.8,-,N/A,,Mostly Cloudy,200,2012-12-03 13:20:00
3:50 PM,53.6,48.2,82,29.50,6.2,NNW,19.6,31.1,N/A,Rain,Light Rain,330,2012-12-03 13:50:00
4:20 PM,50.0,44.6,82,29.50,6.2,West,4.6,-,N/A,Rain-Thunderstorm,Light Thunderstorms and Rain,260,2012-12-03 14:20:00
4:50 PM,50.0,46.4,87,29.50,6.2,West,4.6,-,N/A,,Mostly Cloudy,270,2012-12-03 14:50:00
5:20 PM,50.0,46.4,87,29.50,6.2,Variable,3.5,-,N/A,,Mostly Cloudy,0,2012-12-03 15:20:00
5:50 PM,50.0,46.4,87,29.50,6.2,East,6.9,-,N/A,,Mostly Cloudy,90,2012-12-03 15:50:00
6:20 PM,50.0,46.4,87,29.50,6.2,Variable,2.3,-,N/A,,Overcast,0,2012-12-03 16:20:00
6:50 PM,48.2,41.0,76,29.50,6.2,North,17.3,28.8,N/A,,Scattered Clouds,350,2012-12-03 16:50:00
7:20 PM,46.4,35.6,66,29.50,6.2,North,16.1,27.6,N/A,,Scattered Clouds,360,2012-12-03 17:20:00
7:50 PM,46.4,35.6,66,29.53,6.2,North,23.0,34.5,N/A,,Mostly Cloudy,350,2012-12-03 17:50:00
8:00 PM,46,36,57,,6,North,23.0,,,,Partly Cloudy,350,2012-12-03 18:00:00
8:20 PM,44.6,33.8,66,29.53,6.2,North,21.9,33.4,N/A,,Mostly Cloudy,350,2012-12-03 18:20:00
8:50 PM,44.6,33.8,66,29.53,6.2,North,27.6,39.1,N/A,,Mostly Cloudy,350,2012-12-03 18:50:00
9:20 PM,44.6,32.0,61,29.56,6.2,North,27.6,39.1,N/A,,Scattered Clouds,350,2012-12-03 19:20:00
9:50 PM,44.6,32.0,61,29.56,6.2,NNW,32.2,48.3,N/A,,Scattered Clouds,340,2012-12-03 19:50:00
10:20 PM,44.6,32.0,61,29.59,6.2,NNW,36.8,51.8,N/A,,Mostly Cloudy,340,2012-12-03 20:20:00
10:50 PM,44.6,32.0,61,29.62,6.2,NNW,40.3,57.5,N/A,,Mostly Cloudy,340,2012-12-03 20:50:00
11:20 PM,44.6,32.0,61,29.62,6.2,NNW,40.3,51.8,N/A,,Mostly Cloudy,340,2012-12-03 21:20:00
11:50 PM,44.6,32.0,61,29.62,6.2,NNW,43.7,57.5,N/A,,Mostly Cloudy,340,2012-12-03 21:50:00